• In Netherlands
  • List of Countries
  • For 7 days
  • Water Temperature
  • Satellite Maps
  • Weather Map
  • Weather Widgets
  • user-avatar
    Login

    Hourly Weather Lubango

    Today, 28 June, Wednesday

    Time Temperature Precipitation Wind Pressure Humidity
    00:00 +9°C° 0 mm 1 mps 608 mmHg 51%
    01:00 +9°C° 0 mm 1 mps 608 mmHg 51%
    02:00 +9°C° 0 mm 1 mps 607 mmHg 51%
    03:00 +9°C° 0 mm 1 mps 607 mmHg 52%
    04:00 +9°C° 0 mm 1 mps 607 mmHg 53%
    05:00 +9°C° 0 mm 1 mps 607 mmHg 51%
    06:00 +9°C° 0 mm 1 mps 607 mmHg 50%
    07:00 +9°C° 0 mm 1 mps 608 mmHg 48%
    08:00 +13°C° 0 mm 1 mps 610 mmHg 39%
    09:00 +18°C° 0 mm 2 mps 612 mmHg 29%
    10:00 +23°C° 0 mm 2 mps 614 mmHg 20%
    11:00 +25°C° 0 mm 1 mps 614 mmHg 17%
    12:00 +27°C° 0 mm 1 mps 614 mmHg 15%
    13:00 +28°C° 0 mm 1 mps 614 mmHg 13%
    14:00 +28°C° 0 mm 1 mps 613 mmHg 14%
    15:00 +27°C° 0 mm 1 mps 613 mmHg 14%
    16:00 +26°C° 0 mm 1 mps 612 mmHg 14%
    17:00 +22°C° 0 mm 1 mps 610 mmHg 25%
    18:00 +16°C° 0 mm 1 mps 609 mmHg 35%
    19:00 +11°C° 0 mm 1 mps 607 mmHg 45%
    20:00 +11°C° 0 mm 1 mps 607 mmHg 45%
    21:00 +11°C° 0 mm 1 mps 607 mmHg 44%
    22:00 +10°C° 0 mm 1 mps 607 mmHg 43%
    23:00 +10°C° 0 mm 1 mps 607 mmHg 44%

    Tomorrow, 29 June, Thursday

    Time Temperature Precipitation Wind Pressure Humidity
    00:00 +10°C° 0 mm 1 mps 607 mmHg 45%
    01:00 +9°C° 0 mm 1 mps 607 mmHg 45%
    02:00 +9°C° 0 mm 1 mps 607 mmHg 48%
    03:00 +9°C° 0 mm 1 mps 606 mmHg 51%
    04:00 +8°C° 0 mm 1 mps 606 mmHg 54%
    05:00 +9°C° 0 mm 1 mps 607 mmHg 49%
    06:00 +9°C° 0 mm 1 mps 607 mmHg 44%
    07:00 +9°C° 0 mm 1 mps 607 mmHg 39%
    08:00 +14°C° 0 mm 2 mps 610 mmHg 32%
    09:00 +18°C° 0 mm 2 mps 612 mmHg 25%
    10:00 +24°C° 0 mm 2 mps 614 mmHg 18%
    11:00 +25°C° 0 mm 2 mps 614 mmHg 17%
    12:00 +26°C° 0 mm 2 mps 614 mmHg 16%
    13:00 +28°C° 0 mm 2 mps 614 mmHg 15%
    14:00 +27°C° 0 mm 2 mps 613 mmHg 15%
    15:00 +27°C° 0 mm 2 mps 612 mmHg 16%
    16:00 +26°C° 0 mm 2 mps 612 mmHg 16%
    17:00 +21°C° 0 mm 2 mps 610 mmHg 25%
    18:00 +16°C° 0 mm 2 mps 609 mmHg 34%
    19:00 +12°C° 0 mm 1 mps 607 mmHg 44%
    20:00 +11°C° 0 mm 1 mps 608 mmHg 47%
    21:00 +10°C° 0 mm 1 mps 608 mmHg 50%
    22:00 +9°C° 0 mm 1 mps 608 mmHg 53%
    23:00 +9°C° 0 mm 1 mps 608 mmHg 54%

    Day after tomorrow, 30 June, Friday

    Time Temperature Precipitation Wind Pressure Humidity
    00:00 +9°C° 0 mm 1 mps 608 mmHg 55%
    01:00 +8°C° 0 mm 1 mps 607 mmHg 56%
    02:00 +8°C° 0 mm 1 mps 607 mmHg 55%
    03:00 +8°C° 0 mm 1 mps 607 mmHg 54%
    04:00 +8°C° 0 mm 1 mps 607 mmHg 52%
    05:00 +9°C° 0 mm 1 mps 607 mmHg 50%
    06:00 +9°C° 0 mm 1 mps 607 mmHg 47%
    07:00 +9°C° 0 mm 1 mps 608 mmHg 44%
    08:00 +14°C° 0 mm 2 mps 610 mmHg 35%
    09:00 +18°C° 0 mm 2 mps 612 mmHg 27%
    10:00 +23°C° 0 mm 2 mps 614 mmHg 18%
    11:00 +25°C° 0 mm 2 mps 614 mmHg 16%
    12:00 +26°C° 0 mm 2 mps 614 mmHg 15%
    13:00 +28°C° 0 mm 1 mps 614 mmHg 13%
    14:00 +27°C° 0 mm 1 mps 613 mmHg 14%
    15:00 +27°C° 0 mm 2 mps 613 mmHg 14%
    16:00 +26°C° 0 mm 2 mps 612 mmHg 15%
    17:00 +21°C° 0 mm 2 mps 611 mmHg 24%
    18:00 +16°C° 0 mm 1 mps 609 mmHg 33%
    19:00 +12°C° 0 mm 1 mps 608 mmHg 43%
    20:00 +11°C° 0 mm 1 mps 608 mmHg 46%
    21:00 +10°C° 0 mm 1 mps 608 mmHg 49%
    22:00 +9°C° 0 mm 1 mps 608 mmHg 53%
    23:00 +9°C° 0 mm 1 mps 607 mmHg 54%

    1 July, Saturday

    Time Temperature Precipitation Wind Pressure Humidity
    00:00 +9°C° 0 mm 1 mps 607 mmHg 56%
    01:00 +9°C° 0 mm 1 mps 607 mmHg 57%
    02:00 +9°C° 0 mm 1 mps 607 mmHg 57%
    03:00 +9°C° 0 mm 1 mps 607 mmHg 57%
    04:00 +8°C° 0 mm 1 mps 606 mmHg 56%
    05:00 +9°C° 0 mm 1 mps 607 mmHg 53%
    06:00 +9°C° 0 mm 1 mps 607 mmHg 49%
    07:00 +8°C° 0 mm 2 mps 608 mmHg 45%
    08:00 +14°C° 0 mm 2 mps 610 mmHg 36%
    09:00 +18°C° 0 mm 2 mps 612 mmHg 27%
    10:00 +24°C° 0 mm 3 mps 614 mmHg 17%
    11:00 +25°C° 0 mm 2 mps 614 mmHg 16%
    12:00 +26°C° 0 mm 2 mps 614 mmHg 14%
    13:00 +28°C° 0 mm 2 mps 613 mmHg 12%
    14:00 +27°C° 0 mm 2 mps 613 mmHg 12%
    15:00 +27°C° 0 mm 2 mps 612 mmHg 12%
    16:00 +27°C° 0 mm 1 mps 612 mmHg 12%
    17:00 +22°C° 0 mm 1 mps 610 mmHg 24%
    18:00 +16°C° 0 mm 1 mps 609 mmHg 36%
    19:00 +11°C° 0 mm 1 mps 607 mmHg 48%
    20:00 +10°C° 0 mm 1 mps 607 mmHg 49%
    21:00 +10°C° 0 mm 1 mps 607 mmHg 50%
    22:00 +9°C° 0 mm 1 mps 607 mmHg 50%
    23:00 +9°C° 0 mm 1 mps 607 mmHg 51%

    2 July, Sunday

    Time Temperature Precipitation Wind Pressure Humidity
    00:00 +9°C° 0 mm 1 mps 607 mmHg 51%
    01:00 +9°C° 0 mm 1 mps 607 mmHg 52%
    02:00 +9°C° 0 mm 1 mps 607 mmHg 48%
    03:00 +9°C° 0 mm 1 mps 607 mmHg 45%
    04:00 +8°C° 0 mm 2 mps 607 mmHg 42%
    05:00 +9°C° 0 mm 2 mps 607 mmHg 41%
    06:00 +9°C° 0 mm 2 mps 608 mmHg 41%
    07:00 +9°C° 0 mm 2 mps 608 mmHg 41%
    08:00 +14°C° 0 mm 2 mps 610 mmHg 34%
    09:00 +18°C° 0 mm 3 mps 612 mmHg 28%
    10:00 +22°C° 0 mm 3 mps 614 mmHg 21%
    11:00 +25°C° 0 mm 3 mps 613 mmHg 19%
    12:00 +26°C° 0 mm 2 mps 613 mmHg 16%
    13:00 +27°C° 0 mm 2 mps 613 mmHg 14%
    14:00 +27°C° 0 mm 2 mps 613 mmHg 14%
    15:00 +27°C° 0 mm 2 mps 612 mmHg 14%
    16:00 +27°C° 0 mm 1 mps 612 mmHg 14%
    17:00 +22°C° 0 mm 1 mps 610 mmHg 26%
    18:00 +16°C° 0 mm 1 mps 608 mmHg 38%
    19:00 +11°C° 0 mm 1 mps 607 mmHg 50%
    20:00 +10°C° 0 mm 1 mps 607 mmHg 53%
    21:00 +10°C° 0 mm 1 mps 607 mmHg 55%
    22:00 +9°C° 0 mm 1 mps 607 mmHg 57%
    23:00 +9°C° 0 mm 1 mps 607 mmHg 56%

    3 July, Monday

    Time Temperature Precipitation Wind Pressure Humidity
    00:00 +9°C° 0 mm 1 mps 607 mmHg 54%
    01:00 +9°C° 0 mm 1 mps 607 mmHg 53%
    02:00 +9°C° 0 mm 1 mps 607 mmHg 50%
    03:00 +9°C° 0 mm 1 mps 607 mmHg 47%
    04:00 +8°C° 0 mm 2 mps 607 mmHg 45%
    05:00 +9°C° 0 mm 2 mps 607 mmHg 44%
    06:00 +9°C° 0 mm 2 mps 608 mmHg 43%
    07:00 +9°C° 0 mm 2 mps 608 mmHg 42%
    08:00 +14°C° 0 mm 2 mps 610 mmHg 35%
    09:00 +18°C° 0 mm 3 mps 612 mmHg 27%
    10:00 +22°C° 0 mm 3 mps 613 mmHg 20%
    11:00 +25°C° 0 mm 2 mps 613 mmHg 18%
    12:00 +26°C° 0 mm 2 mps 613 mmHg 16%
    13:00 +28°C° 0 mm 1 mps 613 mmHg 14%
    14:00 +27°C° 0 mm 1 mps 613 mmHg 15%
    15:00 +27°C° 0 mm 1 mps 612 mmHg 15%
    16:00 +26°C° 0 mm 1 mps 612 mmHg 16%
    17:00 +22°C° 0 mm 1 mps 610 mmHg 26%
    18:00 +16°C° 0 mm 1 mps 609 mmHg 37%
    19:00 +12°C° 0 mm 1 mps 607 mmHg 48%
    20:00 +11°C° 0 mm 1 mps 607 mmHg 53%
    21:00 +9°C° 0 mm 1 mps 607 mmHg 58%
    22:00 +8°C° 0 mm 1 mps 607 mmHg 64%
    23:00 +8°C° 0 mm 1 mps 607 mmHg 62%
    Show more